CZ-2C R/B - Orbit

View from above orbital plane
View from above orbital plane
View from above satellite
View from above satellite

Ground track
Ground track

The orbit data is extracted from the following two-line orbital elements,

1 28480U 04046B   13142.11578850  .00000035  00000-0  28985-4 0   683
2 28480 098.0550 324.2360 0141792 299.4142 166.9535 14.25116577442381
Epoch (UTC): 22 May 2013 02:46:44
Eccentricity: 0.0141792
inclination: 98.0550°
perigee height: 706 km
apogee height: 910 km
right ascension of ascending node: 324.2360°
argument of perigee: 299.4142°
revolutions per day: 14.25116577
mean anomaly at epoch: 166.9535°
orbit number at epoch: 44238

The dashed part of the orbit path shows where the satellite is in the earth's shadow,  

Developed and maintained by Chris Peat, Heavens-Above GmbH. Please read the updated FAQ before sending e-mail. Imprint. DLR